Location: ActonStarParty
(42.4766°N, 71.4538°W)
Time: 17:16:00
(UTC-05:00)

Daily predictions for brighter satellites

Satellite Brightness Start Highest point End
(mag) Time Altitude Azimuth Time Altitude Azimuth Time Altitude Azimuth
Cosmos 1844 4.1 16:33:17 10° SW 16:38:47 66° WNW 16:44:21 10° NNE
Cosmos 2218 Rocket 4.0 16:33:46 10° N 16:40:04 75° E 16:46:14 10° SSE
Cosmos 2297 4.2 16:38:40 10° S 16:43:53 40° ESE 16:49:06 10° NE
Cosmos 1544 Rocket 3.8 16:42:21 10° N 16:46:51 82° W 16:51:18 10° S
Cosmos 2278 Rocket 2.3 16:46:30 10° SSW 16:52:09 84° WNW 16:57:51 10° NNE
COSMO-SKYMED 1 4.1 16:51:57 10° NE 16:54:55 18° E 16:57:53 10° SE
SJ-12 4.0 16:52:38 10° SSE 16:56:39 60° ENE 17:00:45 10° N
NOSS 2-1 (E) 4.2 16:53:40 10° S 16:57:08 32° ESE 17:00:52 10° NE
Cosmos 921 Rocket 3.6 16:56:01 10° SSE 16:59:56 37° E 17:03:57 10° NNE
Meteor 1-18 Rocket 4.4 16:56:13 10° S 17:01:54 85° W 17:07:44 10° N
Cosmos 1025 Rocket 4.4 16:58:53 10° SE 17:02:02 20° E 17:05:13 10° NE
Cosmos 1666 4.3 17:00:17 10° NNE 17:02:47 16° ENE 17:05:15 10° ESE
IDEFIX/ARIANE 42P 2.5 16:58:33 10° SSE 17:03:41 68° ENE 17:08:51 10° N
Thor Agena Rocket 3.6 16:59:20 10° NNE 17:04:32 64° ESE 17:09:46 10° S
Genesis I 4.1 17:00:59 10° NW 17:04:49 52° WSW 17:08:37 10° SSE
Abrixas 2.6 17:02:34 10° WNW 17:05:31 73° SSW 17:08:28 10° SE
Okean 1 3.3 17:01:34 10° S 17:05:37 87° E 17:09:42 10° N
Intercosmos 25 3.8 17:03:46 10° NNE 17:06:33 27° ENE 17:09:35 10° SE
Timation 2 Rocket 4.2 17:00:20 10° NNW 17:07:12 72° ENE 17:14:04 10° SSE
Cosmos 1238 Rocket 3.2 17:04:28 10° SSW 17:07:22 48° W 17:10:34 10° N
Cosmos 1833 Rocket 2.8 17:02:23 10° NNW 17:07:55 53° ENE 17:13:24 10° SE
Cosmos 1346 Rocket 2.7 17:05:08 10° S 17:08:59 66° E 17:12:51 10° NNE
Cosmos 1536 Rocket 3.7 17:04:58 10° S 17:09:26 79° W 17:13:56 10° N
USA 234 3.3 17:08:53 11° NE 17:15:17 73° SE 17:21:47 10° SW
Cosmos 2082 Rocket 2.1 17:11:34 10° NNW 17:17:15 73° ENE 17:22:55 10° SSE
YAOGAN 1 2.5 17:14:57 10° SSE 17:19:16 88° ENE 17:23:38 10° NNW
Cosmos 1500 3.5 17:20:36 10° NNW 17:24:26 71° W 17:28:16 10° S
CZ-2C R/B 2.8 17:21:44 10° S 17:26:46 73° WSW 17:31:57 10° NNW
Cosmos 1743 2.7 17:23:09 10° N 17:26:59 56° E 17:30:45 10° SSE
Timation 1 Rocket 4.3 17:21:56 10° SSW 17:27:51 76° ESE 17:33:51 10° NNE
COSMOS 2441 4.3 17:23:15 10° SSE 17:28:04 64° ENE 17:32:56 10° N
MONITOR-E 4.3 17:25:12 10° SSE 17:28:19 55° ENE 17:31:29 10° N
Nadezhda 3 Rocket 3.9 17:23:43 10° S 17:29:55 76° E 17:36:13 10° N
NOSS 3-4 (A) 3.9 17:23:24 10° NNW 17:30:16 56° NE 17:37:32 10° SE
NOSS 3-4 (C) 3.9 17:23:30 10° NNW 17:30:22 56° NE 17:37:38 10° SE
Meteor 1-28 Rocket 4.3 17:31:27 23° E 17:31:44 23° E 17:34:48 10° SSE
Meteor 1-19 Rocket 4.2 17:34:00 10° S 17:39:46 72° E 17:45:38 10° NNE
SL-8 R/B 4.3 17:36:52 10° W 17:41:26 43° N 17:43:47 25° NE
Cosmos 407 Rocket 3.9 17:38:20 10° N 17:43:07 37° ENE 17:47:54 10° SE
SKYMED 2 3.6 17:39:27 13° NNE 17:43:15 58° E 17:47:31 10° S
Cosmos 1484 Rocket 2.5 17:41:34 10° SSE 17:45:17 75° ENE 17:49:01 10° N
Cosmos 2056 Rocket 3.7 17:40:47 10° S 17:45:58 53° ESE 17:49:18 21° NE
GRACE-2 4.0 17:45:04 10° S 17:47:49 73° W 17:49:49 17° N
ERBS 4.3 17:45:45 10° NNW 17:47:17 17° N 17:47:17 17° N
GRACE-1 4.1 17:45:29 10° S 17:48:15 70° W 17:50:18 16° N
SMAP 4.5 17:47:09 10° SSW 17:51:31 40° W 17:55:55 10° NNW
Meteor 2-9 Rocket 4.0 17:50:03 10° N 17:55:27 65° ENE 18:00:43 10° SSE
Cosmos 2369 Rocket 3.4 17:51:22 10° SSE 17:54:58 23° ESE 17:54:58 23° ESE
Meteor 1-15 Rocket 4.4 17:50:00 10° N 17:55:46 54° ENE 18:01:25 10° SSE
BREEZE-M R/B 4.4 17:46:15 10° WSW 17:56:29 59° NNW 17:59:07 29° NE
Okean 2 3.6 17:52:37 10° SSE 17:56:35 45° E 17:57:07 43° ENE
Cosmos 1892 Rocket 3.8 17:54:05 10° SSE 17:58:12 44° E 17:58:40 42° ENE
Cosmos 1624 Rocket 3.9 17:53:37 10° SSW 17:58:46 75° ESE 18:02:04 23° NNE
NOAA 12 4.1 17:55:28 10° SSE 18:00:35 54° ENE 18:05:42 10° N
Meteor 1-23 Rocket 4.1 17:56:46 10° S 18:02:25 69° E 18:07:33 12° NNE
Cosmos 1726 Rocket 3.5 17:59:27 10° N 18:03:52 59° E 18:08:15 10° SSE
Meteor 2-4 Rocket 3.5 17:58:32 10° S 18:03:52 82° E 18:09:04 11° NNE
Okean 1-7 Rocket 4.3 17:59:57 10° SSW 18:04:21 56° W 18:08:45 10° N
Cosmos 1371 Rocket 4.1 17:59:25 10° SSW 18:04:48 80° WNW 18:08:53 18° NNE
CZ-4 R/B 4.4 18:04:45 10° SW 18:07:40 18° W 18:10:34 10° NW
Tiangong 1 1.6 18:06:51 10° W 18:09:19 55° WNW 18:09:19 55° WNW
Meteor 2-8 Rocket 4.3 18:04:08 10° S 18:10:10 73° E 18:16:17 10° NNE
ISS -0.9 18:09:33 10° NW 18:10:48 15° NNW 18:10:48 15° NNW
Cosmos 1934 Rocket 3.9 18:06:02 10° N 18:12:18 86° E 18:18:37 10° S
BREEZE-M DEB (TANK) 4.3 18:10:51 10° WNW 18:15:37 33° N 18:15:37 33° N
Cosmos 1340 4.1 18:17:03 10° S 18:18:56 28° S 18:18:56 28° S
Cosmos 1606 Rocket 3.8 18:18:56 10° NNW 18:23:24 71° W 18:27:50 10° S
Cosmos 1339 Rocket 4.4 18:21:14 10° SSE 18:27:05 53° E 18:27:18 53° E
METEOR-M 4.0 18:21:57 10° SSE 18:27:16 80° ENE 18:32:39 10° N
COSMO-SKYMED 1 3.7 18:28:03 15° N 18:31:15 42° WNW 18:35:20 10° SW
Cosmos 1452 Rocket 3.8 18:29:42 10° S 18:33:52 51° SSE 18:33:52 51° SSE
Cosmos 1190 Rocket 4.3 18:29:48 10° NNW 18:35:00 64° WSW 18:40:08 10° S
GEOS 3 Rocket 3.4 18:36:10 71° NE 18:36:10 71° NE 18:41:09 10° NNW
Cosmos 1666 4.3 18:35:03 10° NNW 18:38:35 35° W 18:42:07 10° SSW
Cosmos 1153 Rocket 4.3 18:44:18 10° N 18:50:30 83° E 18:56:38 10° S
Cosmos 1605 Rocket 4.4 18:51:33 10° NNW 18:57:44 61° W 19:03:46 10° S
USA 234 4.1 18:56:14 35° N 18:58:01 42° NNW 19:04:03 10° W
CZ-3B DEB 4.1 18:56:04 10° WNW 19:01:51 39° N 19:04:32 35° NNE
Cosmos 2369 Rocket 3.8 19:33:50 10° SW 19:36:50 30° WSW 19:36:50 30° WSW
FALCON 9 R/B 3.9 19:36:35 10° W 19:49:06 40° SW 19:49:06 40° SW
